Skip Page Navigation
NASA JPL Caltech
NASA Logo - Jet Propulsion Laboratory + View the NASA Portal
+ Center for Near-Earth Object Studies
JPL Home Earth Solar System Stars & Galaxies Technology
JPL Solar System Dynamics
BODIES ORBITS EPHEMERIDES TOOLS PHYSICAL DATA DISCOVERY FAQ SITE MAP
IMPORTANT: The SSD Announcement email list is now available. Major changes are coming in the near future, including possible hostname and/or URL changes. To be notified of such changes, subscribe to this email list.

Please visit this page for more details.


JPL Small-Body Database Browser
Search: [ help ]  
324026 (2005 UB405)
Classification: Main-belt Asteroid          SPK-ID: 2324026
Ephemeris | Orbit Diagram | Orbital Elements | Mission Design | Physical Parameters | Discovery Circumstances | Close-Approach Data ]

[ show orbit diagram ]
Orbital Elements at Epoch 2459000.5 (2020-May-31.0) TDB
Reference: JPL 6 (heliocentric ecliptic J2000)
 Element Value Uncertainty (1-sigma)   Units 
e .1696299725926146 1.4945e-07  
a 3.09482373791764 9.3059e-08 au
q 2.569848872075697 4.8399e-07 au
i 2.019821431546398 1.3164e-05 deg
node 120.5239100087605 0.00046289 deg
peri 293.0662152362368 0.00047246 deg
M 252.2694949588339 0.00010153 deg
tp 2459595.598014003518
(2022-Jan-16.09801400)
0.00058307 TDB
period 1988.622303027379
5.44
8.9694e-05
2.456e-07
d
yr
n .1810298513960917 8.1651e-09 deg/d
Q 3.619798603759582 1.0884e-07 au
  Orbit Determination Parameters
   # obs. used (total)      72  
   data-arc span      4523 days (12.38 yr)  
   first obs. used      2005-10-29  
   last obs. used      2018-03-18  
   planetary ephem.      DE431  
   SB-pert. ephem.      SB431-N16  
   condition code      0  
   norm. resid. RMS      .60754  
   source      ORB  
   producer      Otto Matic  
   solution date      2020-Feb-25 20:08:34  

Additional Information
 Earth MOID = 1.58202 au 
 Jupiter MOID = 1.7462 au 
 T_jup = 3.200 
[ show covariance matrix ]

Ephemeris | Orbit Diagram | Orbital Elements | Mission Design | Physical Parameters | Discovery Circumstances | Close-Approach Data ]

Physical Parameter Table
Parameter Symbol Value Units Sigma Reference Notes
absolute magnitude H 16.9   n/a MPO345886  

324026 (2005 UB405)          Discovered 2005-Oct-29 by Mt. Lemmon Survey at Mount Lemmon
Reference: 20120406/Numbers.arcLast Updated: 2012-04-09

[ show close-approach data ]
Ephemeris | Orbit Diagram | Orbital Elements | Mission Design | Physical Parameters | Discovery Circumstances | Close-Approach Data ]
ABOUT SSD CREDITS/AWARDS PRIVACY/COPYRIGHT GLOSSARY LINKS
FirstGov 2020-Jun-05 19:55 UT
(server date/time)  
NASA Home Page
Site Manager:   Ryan S. Park
Webmaster  Alan B. Chamberlin